(519032) = 2010 JR156

Discovered at Mount Lemmon on 2010-05-11 by Mt. Lemmon Survey.

Orbit

Orbit type: Main Belt

Note: WebGL enabled browser required.

epoch2023-02-25.0
epoch JD2460000.5
perihelion date2021-12-20.10830
perihelion JD2459568.60830
argument of perihelion (°)122.25413
ascending node (°)199.55606
inclination (°)10.18956
eccentricity0.1087281
perihelion distance (AU)2.6897554
Tisserand w.r.t. Jupiter3.2
ΔV w.r.t. Earth (km/sec)10.7
semimajor axis (AU)3.0178842
mean anomaly (°)81.19417
mean daily motion (°/day)0.18799660
aphelion distance (AU)3.346
period (years)5.24
P-vector [x]0.78150210
P-vector [y]-0.61522893
P-vector [z]-0.10367172
Q-vector [x]0.62108615
Q-vector [y]0.75138750
Q-vector [z]0.22286503
absolute magnitude17.5
phase slope0.15
uncertainty0
referenceMPO 731744
observations used87
oppositions7
arc length (days)4583
first opposition used2010
last opposition used2022
residual rms (arc-secs)0.44
perturbers coarse indicatorM-v
perturbers precise indicator003El
first observation date used2010-05-11.0
last observation date used2022-11-27.0
computer namePan
Minimum Orbit Intersection Distances (in AU)
for orbit epoch: 2460000.5, reference: E2022-WP2
Mercury2.28673
Venus1.98186
Earth1.69392
Mars1.34913
Jupiter2.02344
Saturn5.88125
Uranus15.1515
Neptune26.8959

Observations

87 total observations over interval: 2010 05 11.37104 – 2022 11 27.279761
These data are available for download (format description).

Date (UT) J2000 RA J2000 Dec Magn Location Ref
2010 05 11.37104 15 41 14.85 -10 46 02.0 21.1 V G96 – Mt. Lemmon Survey MPS 328682
2010 05 11.37811 15 41 14.53 -10 45 58.8 21.4 V G96 – Mt. Lemmon Survey MPS 328682
2010 05 11.38515 15 41 14.20 -10 45 56.3 20.9 V G96 – Mt. Lemmon Survey MPS 328682
2010 05 11.39226 15 41 13.92 -10 45 54.0 21.2 V G96 – Mt. Lemmon Survey MPS 328682
2010 05 20.25914 15 34 22.50 -09 57 15.1 21.7 V 691 – Steward Observatory, Kitt Peak-Spacewatch MPS 328682
2010 05 20.27690 15 34 21.64 -09 57 09.6 21.2 V 691 – Steward Observatory, Kitt Peak-Spacewatch MPS 328682
2010 05 20.29465 15 34 20.82 -09 57 03.9 21.8 V 691 – Steward Observatory, Kitt Peak-Spacewatch MPS 328682
2011 09 15.32566 22 18 02.573 -00 02 58.26 21.5 i F51 – Pan-STARRS 1, Haleakala MPS 884891
2011 09 15.32864 22 18 02.468 -00 02 59.61 21.4 i F51 – Pan-STARRS 1, Haleakala MPS 884891
2011 09 15.33164 22 18 02.356 -00 03 01.02 21.5 i F51 – Pan-STARRS 1, Haleakala MPS 884891
2011 09 15.33459 22 18 02.247 -00 03 02.52 21.4 i F51 – Pan-STARRS 1, Haleakala MPS 884891
2011 09 15.33755 22 18 02.136 -00 03 03.94 21.5 i F51 – Pan-STARRS 1, Haleakala MPS 884891
2011 09 15.34346 22 18 01.924 -00 03 06.57 21.4 i F51 – Pan-STARRS 1, Haleakala MPS 884891
2015 04 25.45560 14 06 52.028 -09 01 04.34 21.5 w F51 – Pan-STARRS 1, Haleakala MPS 884891
2015 04 25.46782 14 06 51.471 -09 00 59.60 21.5 w F51 – Pan-STARRS 1, Haleakala MPS 884891
2015 04 25.47993 14 06 50.925 -09 00 54.78 21.4 w F51 – Pan-STARRS 1, Haleakala MPS 884891
2015 04 25.49244 14 06 50.344 -09 00 49.77 21.5 w F51 – Pan-STARRS 1, Haleakala MPS 884891
2016 06 07.51030 20 59 11.464 -03 14 31.97 22.0 w F51 – Pan-STARRS 1, Haleakala MPS 884891
2016 06 07.53482 20 59 11.613 -03 14 25.58 22.2 w F51 – Pan-STARRS 1, Haleakala MPS 884891
2016 06 07.54712 20 59 11.694 -03 14 22.25 22.0 w F51 – Pan-STARRS 1, Haleakala MPS 884891
2016 06 29.49206 20 56 33.430 -02 06 00.08 21.3 r F51 – Pan-STARRS 1, Haleakala MPS 884891
2016 06 29.50454 20 56 33.138 -02 05 59.38 21.5 r F51 – Pan-STARRS 1, Haleakala MPS 884891
2016 06 29.51700 20 56 32.828 -02 05 57.81 21.5 r F51 – Pan-STARRS 1, Haleakala MPS 884891
2016 07 07.47825 20 53 00.369 -02 00 09.47 21.4 w F51 – Pan-STARRS 1, Haleakala MPS 884891
2016 07 07.49059 20 52 59.938 -02 00 09.63 21.5 w F51 – Pan-STARRS 1, Haleakala MPS 884891
2016 07 07.50292 20 52 59.540 -02 00 09.66 21.2 w F51 – Pan-STARRS 1, Haleakala MPS 884891
2016 07 07.51529 20 52 59.115 -02 00 09.40 21.5 w F51 – Pan-STARRS 1, Haleakala MPS 884891
2016 07 09.48768 20 51 55.383 -02 00 30.45 21.4 w F51 – Pan-STARRS 1, Haleakala MPS 884891
2016 07 09.49993 20 51 54.960 -02 00 30.78 21.4 w F51 – Pan-STARRS 1, Haleakala MPS 884891
2016 07 09.51219 20 51 54.530 -02 00 31.05 21.4 w F51 – Pan-STARRS 1, Haleakala MPS 884891
2016 07 09.52445 20 51 54.090 -02 00 31.35 21.6 w F51 – Pan-STARRS 1, Haleakala MPS 884891
2016 08 08.37722 20 30 58.371 -03 28 45.23 21.1 w F51 – Pan-STARRS 1, Haleakala MPS 884891
2016 08 08.38895 20 30 57.843 -03 28 48.91 21.0 w F51 – Pan-STARRS 1, Haleakala MPS 884891
2016 08 08.40070 20 30 57.312 -03 28 52.60 21.2 w F51 – Pan-STARRS 1, Haleakala MPS 884891
2016 08 26.29002 20 20 01.786 -05 13 46.58 21.1 w F51 – Pan-STARRS 1, Haleakala MPS 884891
2016 08 26.30191 20 20 01.452 -05 13 51.00 21.0 w F51 – Pan-STARRS 1, Haleakala MPS 884891
2016 08 26.31384 20 20 01.086 -05 13 55.44 21.3 w F51 – Pan-STARRS 1, Haleakala MPS 884891
2016 08 26.32578 20 20 00.727 -05 13 59.93 21.4 w F51 – Pan-STARRS 1, Haleakala MPS 884891
2017 10 23.36540 03 46 17.04 +12 35 23.4 20.7 G G96 – Mt. Lemmon Survey MPS 884891
2017 10 23.37064 03 46 16.81 +12 35 22.3 21.9 G G96 – Mt. Lemmon Survey MPS 884891
2017 10 23.37585 03 46 16.57 +12 35 20.8 22.1 G G96 – Mt. Lemmon Survey MPS 884891
2017 11 16.28324 03 28 32.42 +10 15 08.7 21.2 G G96 – Mt. Lemmon Survey MPS 888588
2017 11 16.28842 03 28 32.20 +10 15 06.2 21.7 G G96 – Mt. Lemmon Survey MPS 888588
2017 11 16.29360 03 28 31.91 +10 15 04.8 22.4 G G96 – Mt. Lemmon Survey MPS 888588
2017 11 16.29880 03 28 31.63 +10 15 03.0 20.9 G G96 – Mt. Lemmon Survey MPS 888588
2017 11 18.34350 03 26 52.609 +10 04 11.04 21.6 w F51 – Pan-STARRS 1, Haleakala MPS 888588
2017 11 18.35517 03 26 52.031 +10 04 07.50 21.7 w F51 – Pan-STARRS 1, Haleakala MPS 888588
2017 11 18.36688 03 26 51.462 +10 04 03.74 21.5 w F51 – Pan-STARRS 1, Haleakala MPS 888588
2020 04 15.21964 12 43 34.37 -05 36 50.9 22.4 G G96 – Mt. Lemmon Survey MPS 1175402
2020 04 15.22522 12 43 34.07 -05 36 48.3 21.8 G G96 – Mt. Lemmon Survey MPS 1175402
2020 04 15.23079 12 43 33.81 -05 36 46.8 22.5 G G96 – Mt. Lemmon Survey MPS 1175402
2020 04 15.23638 12 43 33.63 -05 36 44.3 22.1 G G96 – Mt. Lemmon Survey MPS 1175402
2020 04 22.28627 12 39 04.880 -04 48 09.21 22.3 w F51 – Pan-STARRS 1, Haleakala MPS 1185261
2020 04 22.31155 12 39 03.946 -04 47 59.12 22.5 w F51 – Pan-STARRS 1, Haleakala MPS 1185261
2020 04 22.32404 12 39 03.475 -04 47 54.30 22.0 w F51 – Pan-STARRS 1, Haleakala MPS 1185261
2022 09 19.486583 02 20 28.648 +12 53 11.35 21.91 w F51 – Pan-STARRS 1, Haleakala MPS 1653945
2022 09 19.504829 02 20 28.293 +12 53 05.82 21.70 w F51 – Pan-STARRS 1, Haleakala MPS 1653945
2022 09 19.514104 02 20 28.127 +12 53 02.94 21.86 w F51 – Pan-STARRS 1, Haleakala MPS 1653945
2022 09 25.463178 02 18 20.423 +12 20 19.46 21.44 G G96 – Mt. Lemmon Survey MPS 1663524
2022 09 25.468314 02 18 20.261 +12 20 16.94 22.24 G G96 – Mt. Lemmon Survey MPS 1663524
2022 09 25.473446 02 18 20.185 +12 20 15.11 22.01 G G96 – Mt. Lemmon Survey MPS 1663524
2022 09 25.478595 02 18 20.048 +12 20 14.14 21.11 G G96 – Mt. Lemmon Survey MPS 1663524
2022 09 26.461769 02 17 54.764 +12 14 23.68 21.69 w F52 – Pan-STARRS 2, Haleakala MPS 1663524
2022 09 26.473961 02 17 54.425 +12 14 19.26 21.63 w F52 – Pan-STARRS 2, Haleakala MPS 1663524
2022 09 26.498709 02 17 53.716 +12 14 10.20 21.57 w F52 – Pan-STARRS 2, Haleakala MPS 1663524
2022 10 01.424131 02 15 28.849 +11 43 10.50 21.60 w F52 – Pan-STARRS 2, Haleakala MPS 1663524
2022 10 01.435126 02 15 28.493 +11 43 06.16 21.81 w F52 – Pan-STARRS 2, Haleakala MPS 1663524
2022 10 01.446105 02 15 28.094 +11 43 01.84 21.61 w F52 – Pan-STARRS 2, Haleakala MPS 1663524
2022 10 17.336818 02 05 09.557 +09 49 04.19   G96 – Mt. Lemmon Survey MPS 1684970
2022 10 17.341951 02 05 09.308 +09 49 01.16   G96 – Mt. Lemmon Survey MPS 1684970
2022 10 17.347091 02 05 09.067 +09 48 58.21 21.07 G G96 – Mt. Lemmon Survey MPS 1684970
2022 10 17.352245 02 05 08.840 +09 48 56.16 21.02 G G96 – Mt. Lemmon Survey MPS 1684970
2022 10 18.557189 02 04 15.697 +09 39 49.64 21.20 w F52 – Pan-STARRS 2, Haleakala MPS 1684970
2022 10 18.577443 02 04 14.780 +09 39 40.38 21.27 w F52 – Pan-STARRS 2, Haleakala MPS 1684970
2022 10 18.587593 02 04 14.307 +09 39 35.72 21.43 w F52 – Pan-STARRS 2, Haleakala MPS 1684970
2022 10 29.388788 01 56 11.681 +08 18 32.26 21.51 G V00 – Kitt Peak-Bok MPS 1700626
2022 10 29.393758 01 56 11.454 +08 18 30.13 21.15 G V00 – Kitt Peak-Bok MPS 1700626
2022 10 29.398722 01 56 11.238 +08 18 27.94 21.10 G V00 – Kitt Peak-Bok MPS 1700626
2022 10 29.403693 01 56 11.008 +08 18 25.70 21.36 G V00 – Kitt Peak-Bok MPS 1700626
2022 10 31.352270 01 54 45.860 +08 04 21.00 21.27 G V00 – Kitt Peak-Bok MPS 1700626
2022 10 31.357243 01 54 45.630 +08 04 18.84 21.04 G V00 – Kitt Peak-Bok MPS 1700626
2022 10 31.362211 01 54 45.414 +08 04 16.79 21.46 G V00 – Kitt Peak-Bok MPS 1700626
2022 10 31.367181 01 54 45.187 +08 04 14.56 21.54 G V00 – Kitt Peak-Bok MPS 1700626
2022 11 27.264846 01 40 05.488 +05 35 01.68 22.30 G V00 – Kitt Peak-Bok MPS 1715997
2022 11 27.269835 01 40 05.365 +05 35 00.53 22.05 G V00 – Kitt Peak-Bok MPS 1715997
2022 11 27.274798 01 40 05.282 +05 34 59.27 22.75 G V00 – Kitt Peak-Bok MPS 1715997
2022 11 27.279761 01 40 05.171 +05 34 58.26 22.09 G V00 – Kitt Peak-Bok MPS 1715997